Location: Montamat
(43.4852°N, 0.8444°E)
Time: 08:32:52
(UTC+00:00)

NOSS 0 Rocket - Pass Details

Date: 14 May 2026
Orbit: 936 x 952 km, 70.0° (Epoch: 5 June)

Event Time Altitude Azimuth Distance (km) Brightness Sun altitude
Rises 23:05:36 0° 336° (NNW) 3,613 8.2 -26.8°
Reaches altitude 10° 23:08:12 10° 340° (NNW) 2,663 7.3 -26.9°
Maximum altitude 23:14:17 59° 60° (ENE) 1,078 4.2 -27.1°
Enters shadow 23:15:26 51° 101° (ESE) 1,171 4.2 -27.1°
